Regional Weather Roundup
Issued by NWS

Home | Current Version | Previous Version | Text Only | Print | Product List | Glossary Off
Versions: 1 2 3 4 5 6 7 8 9 10 11 12 13 14 15 16 17 18 19 20 21 22 23 24 25 26 27 28 29 30 31 32 33 34 35 36 37 38 39 40 41 42 43 44 45 46 47 48 49 50

000
ASUS43 KDTX 161810
RWRMI
MICHIGAN HOURLY REGIONAL WEATHER ROUNDUP
NATIONAL WEATHER SERVICE DETROIT/PONTIAC MI
ISSUED BY NATIONAL WEATHER SERVICE GRAND RAPIDS MI
100 PM EST MON JAN 16 2017

NOTE: "FAIR" INDICATES FEW OR NO CLOUDS BELOW 12,000 FEET WITH NO
SIGNIFICANT WEATHER AND/OR OBSTRUCTION TO VISIBILITY.

MIZ047>049-052>055-059>063-066>070-074>076-081>083-161900-
SOUTHEAST LOWER MICHIGAN

CITY           SKY/WX    TMP DP  RH WIND       PRES   REMARKS
ADRIAN         CLOUDY    31  30  96 E5        30.28F FOG     WCI  26
6HR MIN TEMP:  26; 6HR MAX TEMP:  32; 6HR PCP: TRACE;

ALMA           CLOUDY    32  24  72 SW5       30.27F WCI  27
6HR MIN TEMP:  20; 6HR MAX TEMP:  32;

ANN ARBOR      MIX PCPN  33  28  81 E5        30.27F WCI  29
BAD AXE        CLOUDY    32  25  76 SW6       30.28F WCI  26
6HR MIN TEMP:  20; 6HR MAX TEMP:  32;

DETROIT CITY   FRZ RAIN  32  28  85 SE5       30.30F WCI  27
6HR MIN TEMP:  20; 6HR MAX TEMP:  32; 6HR PCP:  0.01;

DETROIT        CLOUDY    35  27  72 CALM      30.30F HAZE
6HR MIN TEMP:  26; 6HR MAX TEMP:  35; 6HR PCP: TRACE;

FLINT          LGT RAIN  32  25  75 S5        30.28F WCI  27
6HR MIN TEMP:  19; 6HR MAX TEMP:  32; 6HR PCP:  0.02;

GROSSE ILE     CLOUDY    34  29  81 E5        30.28F HAZE    WCI  30
6HR MIN TEMP:  25; 6HR MAX TEMP:  34;

HILLSDALE      MIX PCPN  32  28  86 SE6       30.23F WCI  26
HOWELL         MIX PCPN  32  28  87 SE6       30.26F WCI  26

CITY           SKY/WX    TMP DP  RH WIND       PRES   REMARKS
JACKSON        CLOUDY    34  27  75 E5        30.25F WCI  30
6HR MIN TEMP:  26; 6HR MAX TEMP:  34;

LANSING        FRZ RAIN  32  26  78 SE6       30.26F WCI  26
6HR MIN TEMP:  22; 6HR MAX TEMP:  32; 6HR PCP:  0.05;

MASON          CLOUDY    32  29  89 SE5       30.25F FOG     WCI  27
MONROE         LGT SNOW  34  30  86 E6        30.28F WCI  28
MT. CLEMENS    FRZ RAIN  32  28  86 CALM      30.27F
6HR MIN TEMP:  19; 6HR MAX TEMP:  31; 6HR PCP: TRACE;

PONTIAC        FRZ RAIN  30  26  85 S5        30.26F FOG     WCI  25
6HR MIN TEMP:  19; 6HR MAX TEMP:  30; 6HR PCP:  0.01;

PORT HOPE        N/A     34  23  64 VRB5      30.26F WCI  30
6HR MIN TEMP:  24; 6HR MAX TEMP:  35;

PORT HURON     LGT SNOW  30  28  93 S7        30.30F WCI  23
TRI CITIES     CLOUDY    31  23  72 CALM      30.28F
6HR MIN TEMP:  22; 6HR MAX TEMP:  31;

YPSILANTI      MIX PCPN  34  28  79 E5        30.29F WCI  30
6HR MIN TEMP:  23; 6HR MAX TEMP:  34; 6HR PCP: TRACE;

$$
MIZ043>046-050>051-056>058-064>065-071>073-077>080-161900-
SOUTHWEST LOWER MICHIGAN

CITY           SKY/WX    TMP DP  RH WIND       PRES   REMARKS
BATTLE CREEK   LGT RAIN  34  30  85 SE8       30.22F WCI  27
6HR MIN TEMP:  28; 6HR MAX TEMP:  34; 6HR PCP:  0.06;

BENTON HARBOR  LGT RAIN  36  33  89 E6        30.21F FOG     WCI  31
6HR MIN TEMP:  32; 6HR MAX TEMP:  36; 6HR PCP:  0.09;

BIG RAPIDS     CLOUDY    30  23  75 CALM      30.23F
6HR MIN TEMP:  11; 6HR MAX TEMP:  30;

COLDWATER      LGT RAIN  36  33  90 SE7       30.23F WCI  30
6HR MIN TEMP:  30; 6HR MAX TEMP:  36;

HOLLAND        LGT RAIN  33  29  85 E6        30.23F WCI  28
6HR MIN TEMP:  28; 6HR MAX TEMP:  34; 6HR PCP:  0.08;

GRAND RAPIDS   FRZ RAIN  32  28  85 SE3       30.24F
6HR MIN TEMP:  23; 6HR MAX TEMP:  32; 6HR PCP:  0.08;

KALAMAZOO      FRZ DRZL  35  30  82 SE6       30.22F WCI  30
6HR MIN TEMP:  29; 6HR MAX TEMP:  35; 6HR PCP:  0.04;

MARSHALL       CLOUDY    34  31  88 SE7       30.23F WCI  28
6HR MIN TEMP:  27; 6HR MAX TEMP:  34;

MOUNT PLEASANT MOSUNNY   32  23  69 CALM      30.25F
6HR MIN TEMP:  16; 6HR MAX TEMP:  32;

MUSKEGON       CLOUDY    33  29  85 E7        30.23F WCI  27
6HR MIN TEMP:  24; 6HR MAX TEMP:  33; 6HR PCP:  0.04;

STURGIS        MIX PCPN  33  32  97 E7        30.22F WCI  27
6HR MIN TEMP:  30; 6HR MAX TEMP:  33;

$$
MIZ016>042-161900-
NORTHERN LOWER MICHIGAN

CITY           SKY/WX    TMP DP  RH WIND       PRES   REMARKS
ALPENA         CLOUDY    36  21  54 SW8       30.21F WCI  30
6HR MIN TEMP:  17; 6HR MAX TEMP:  36;

BEAVER ISLAND  CLOUDY    34  27  75 W13       30.20F WCI  25
BELLAIRE       CLOUDY    31  30  99 S5        30.24F WCI  26
6HR MIN TEMP:   8; 6HR MAX TEMP:  31;

CADILLAC       CLOUDY    30  28  92 CALM      30.21F FOG
CHARLEVOIX     MOSUNNY   36  26  68 SW8       30.24F WCI  29
6HR MIN TEMP:  19; 6HR MAX TEMP:  36;

GAYLORD        CLOUDY    33  24  69 SW9       30.20F WCI  25
6HR MIN TEMP:  21; 6HR MAX TEMP:  33;

HOUGHTON LAKE  CLOUDY    28  24  85 CALM      30.24F FOG
6HR MIN TEMP:   6; 6HR MAX TEMP:  28;

MANISTEE       MOSUNNY   30  29  96 E3        30.24F FOG
OSCODA         CLOUDY    32  26  76 SW5       30.25F WCI  28
6HR MIN TEMP:  17; 6HR MAX TEMP:  32;

PELLSTON       CLOUDY    35  25  66 SW7       30.21F WCI  29
6HR MIN TEMP:  27; 6HR MAX TEMP:  35;

TRAVERSE CITY  CLOUDY    34  27  75 S3        30.23F
6HR MIN TEMP:  16; 6HR MAX TEMP:  34;

LUDINGTON      CLOUDY    33  31  92 CALM      30.23F FOG
6HR MIN TEMP:  17; 6HR MAX TEMP:  33;

$$
MIZ007>008-015-161900-
EASTERN UPPER MICHIGAN

CITY           SKY/WX    TMP DP  RH WIND       PRES   REMARKS
KINROSS        CLOUDY    35  24  64 SW10      30.18F WCI  27
6HR MIN TEMP:  25; 6HR MAX TEMP:  35;

MACKINAC ISLAN CLOUDY    32  29  88 SW8G18    30.20F WCI  25
6HR MIN TEMP:  28; 6HR MAX TEMP:  32;

NEWBERRY       CLOUDY    29  18  65 SW5       30.17S WCI  24
6HR MIN TEMP:  18; 6HR MAX TEMP:  29;

S. S. MARIE    CLOUDY    33  23  66 W7        30.17F WCI  27
6HR MIN TEMP:  20; 6HR MAX TEMP:  33;

$$
MIZ004>006-011>014-085-161900-
CENTRAL UPPER MICHIGAN

CITY           SKY/WX    TMP DP  RH WIND       PRES   REMARKS
MANISTIQUE     CLOUDY    29  21  71 SW3       30.19F
6HR MIN TEMP:  19; 6HR MAX TEMP:  29;

ESCANABA       CLOUDY    32  17  54 CALM      30.20F
6HR MIN TEMP:  -1; 6HR MAX TEMP:  34;

SAWYER-GWINN   SUNNY     28  19  69 S7        30.13F WCI  21
$$
MIZ001>003-009>011-084-161900-
WESTERN UPPER MICHIGAN

CITY           SKY/WX    TMP DP  RH WIND       PRES   REMARKS
IRON MOUNTAIN  CLOUDY    33  10  38 CALM      30.14F
6HR MIN TEMP:  11; 6HR MAX TEMP:  33;

HOUGHTON       SUNNY     32  23  69 W14       30.11F WCI  22
6HR MIN TEMP:  22; 6HR MAX TEMP:  32;

COPPER HARBOR    N/A     36  27  69 N9        30.11F WCI  29
6HR MIN TEMP:  22; 6HR MAX TEMP:  36;

IRONWOOD       SUNNY     37  18  46 CALM      30.12F
6HR MIN TEMP:  13; 6HR MAX TEMP:  37;

$$

ABBREVIATIONS USED IN REMARKS
   TC - TEMPERATURE IN CELSIUS
  WCI - WIND CHILL INDEX
   HX - HEAT INDEX
  VSB - VISIBILITY




USA.gov is the U.S. government's official web portal to all federal, state and local government web resources and services.